Hourly Data Report for February 09, 2017

All times are specified in Local Standard Time (LST). Add 1 hour to adjust for Daylight Saving Time where and when it is observed.

COLVILLE LAKE
NORTHWEST TERRITORIES

67°01'17.040" N
126°07'23.070" W
271.00 m
2200824
71055
WFX

Download Data

Hourly Data (February 2017)
Hourly Data Report for February 9, 2017
Temp Definition
°C
Dew Point Temp Definition
°C
Rel Hum Definition
%
Wind Dir Definition
10's deg

Wind Spd Definition
km/h
Visibility Definition
km
Stn Press Definition
kPa
Hmdx Definition


Wind Chill Definition


Weather Definition


TIME
00:00 -29.5 -33.0 72 0 1   97.27   -31 LegendNANA
01:00 -30.0 -32.4 79 21 11   97.26   -40 LegendNANA
02:00 -30.1 -33.2 74 19 9   97.24   -39 LegendNANA
03:00 -30.3 -33.4 74 19 9   97.22   -39 LegendNANA
04:00 -30.5 -33.7 73 19 11   97.20   -40 LegendNANA
05:00 -30.4 -33.7 73 20 13   97.16   -41 LegendNANA
06:00 -30.0 -33.2 74 20 12   97.12   -40 LegendNANA
07:00 -29.5 -32.7 74 20 12   97.10   -40 LegendNANA
08:00 -28.4 -31.4 75 20 12   97.07   -38 LegendNANA
09:00 -27.9 -31.0 75 20 7   97.04   -35 LegendNANA
10:00 -27.9 -31.0 75 21 3   97.03   -31 LegendNANA
11:00 -30.5 -33.9 72 22 8   97.03   -39 LegendNANA
12:00 -28.4 -31.5 75 19 5   97.01   -34 LegendNANA
13:00 -25.6 -28.5 76 20 4   97.00   -30 LegendNANA
14:00 -27.4 -30.6 74 23 8   96.98   -35 LegendNANA
15:00 -28.6 -31.9 73 21 6   96.99   -35 LegendNANA
16:00 -29.9 -33.2 73 23 5   97.01   -36 LegendNANA
17:00 -30.0 -33.2 73 20 6   97.02   -37 LegendNANA
18:00 -30.5 -33.9 72 25 2   97.05   -33 LegendNANA
19:00 -32.2 -35.9 70   0   97.05     LegendNANA
20:00 -30.3 -33.4 74 33 5   97.05   -36 LegendNANA
21:00 -31.4 -34.8 72 33 3   97.07   -35 LegendNANA
22:00 -31.9 -35.2 72 3 2   97.09   -34 LegendNANA
23:00 -33.6 -37.2 70 6 4   97.12   -38 LegendNANA

Notes on Data Quality.

Legend

  • E = Estimated
  • M = Missing
  • NA = Not Available
  • ‡ = Partner data that is not subject to review by the National Climate Archives
Date modified: